sat.trackr.live / text

‹ back to catalog

STARLINK-3756

NORAD 52309 · 2022-041BA

PAYLOAD ACTIVE UNKNOWN

§ Identity

Operator
Country
US
Launch date
2022-04-21
Launch site
AFETR
Launch vehicle
Mass (kg)
RCS (m²)

Purposes: comms

External: N2YO · Heavens-Above · Gunter

§ Orbital elements

Epoch: 2026-09-19T07:51:18.233568Z

Period
94.01 min
Inclination
53.1597°
Eccentricity
0.0001207
Mean motion
15.31698203 rev/d
Perigee alt
469.9 km
Apogee alt
471.6 km
Semi-major
6,848.9 km
B*
1.9726e-5
RAAN
285.2303°
Arg perigee
80.8070°
Mean anomaly
279.3068°
Rev number
24,529

§ Raw data

STARLINK-37561 52309U 22041BA  26262.32729437  .00000247  00000+0  19726-4 0  99942 52309  53.1597 285.2303 0001207  80.8070 279.3068 15.31698203245292

JSON: /api/v1/satellites/52309 · /tle

For live sub-satellite position, see the globe view (requires WebGL).

§ Visibility from observer

Set your observer location to see the next 7 days of passes ≥ 10°. The values pass through the URL so the page stays shareable.

No JS? Fill the form by hand. The geolocation button needs JavaScript.